sat.trackr.live / text

‹ back to catalog

STARLINK-35631

NORAD 66121 · 2025-237H

PAYLOAD ACTIVE UNKNOWN

§ Identity

Operator
Country
US
Launch date
2025-10-22
Launch site
AFWTR
Launch vehicle
Mass (kg)
RCS (m²)

Purposes: comms

External: N2YO · Heavens-Above · Gunter

§ Orbital elements

Epoch: 2026-09-20T07:20:37.656096Z

Period
93.85 min
Inclination
53.1572°
Eccentricity
0.0001555
Mean motion
15.34414288 rev/d
Perigee alt
461.6 km
Apogee alt
463.7 km
Semi-major
6,840.8 km
B*
7.3194e-4
RAAN
214.4852°
Arg perigee
85.7037°
Mean anomaly
274.4143°
Rev number
5,242

§ Raw data

STARLINK-356311 66121U 25237H   26263.30599139  .00024445  00000+0  73194-3 0  99982 66121  53.1572 214.4852 0001555  85.7037 274.4143 15.34414288 52421

JSON: /api/v1/satellites/66121 · /tle

For live sub-satellite position, see the globe view (requires WebGL).

§ Visibility from observer

Set your observer location to see the next 7 days of passes ≥ 10°. The values pass through the URL so the page stays shareable.

No JS? Fill the form by hand. The geolocation button needs JavaScript.